Theta_e
304 305 306 305 305 305 304 304 304 304 304 304 305 305 305 306 307 308 310 311 310 310 310 311 311 312 313 313 314 314 314 314 315 316 317 317 318 320 321 320 322 322 325 330 337 345 350 350 350 351 352 353 354 353 351 349 347 346 345 344 344 344 344 344 344 343 342 342 342 341 341 341 340 339 338 338 338 338 338 337 337 338 339 341 341 342
305 306 307 305 305 304 303 303 303 303 303 303 303 304 304 305 306 307 309 310 309 309 310 311 311 311 312 313 314 314 314 314 315 316 317 317 318 320 320 320 321 322 324 325 337 347 348 349 350 350 352 353 353 353 352 351 348 347 346 345 344 344 344 345 344 344 343 343 342 340 340 339 339 338 338 338 338 338 338 338 338 338 340 341 341 341
306 307 306 304 304 304 303 303 303 303 303 303 304 303 304 304 305 306 307 308 308 308 309 310 310 311 312 313 314 314 314 314 315 315 316 317 318 319 319 321 321 322 323 324 335 346 346 347 350 350 352 353 353 353 353 352 349 348 346 345 345 344 344 345 344 344 344 343 341 340 339 339 338 338 338 338 339 339 339 339 338 339 341 342 341 342
307 307 305 304 304 304 304 303 303 304 304 304 304 303 304 304 304 305 305 306 307 307 308 309 310 309 311 312 312 312 312 313 314 314 316 316 317 318 319 321 321 321 324 325 330 340 347 349 349 349 351 352 352 352 352 352 350 348 347 345 345 345 345 345 344 344 345 343 341 340 339 339 338 338 339 340 340 340 340 340 339 340 342 342 342 342
307 306 304 304 304 304 304 304 304 304 305 305 304 304 304 304 304 304 304 304 305 306 306 307 307 308 309 310 311 311 311 312 313 314 315 316 316 317 318 319 320 321 323 325 328 334 345 352 351 349 350 350 351 351 351 351 350 348 347 346 346 345 345 345 345 345 345 344 341 340 339 339 339 340 340 341 342 341 341 340 340 341 342 343 342 342
306 305 304 304 304 304 304 304 304 304 305 306 305 304 304 304 304 304 303 303 303 304 304 304 305 306 308 309 310 311 311 311 312 313 313 314 315 316 317 317 319 320 321 324 326 329 337 346 349 352 352 350 350 351 350 350 349 348 348 347 346 346 346 346 345 346 346 344 342 341 340 339 340 341 342 342 342 342 341 340 340 341 343 343 343 343
306 305 305 304 305 304 304 305 305 304 305 306 306 305 305 304 304 304 303 303 303 303 304 304 303 305 306 307 309 310 311 312 312 313 312 313 314 314 315 316 317 318 319 321 323 325 329 339 344 348 352 352 351 350 351 351 350 350 349 348 347 346 346 346 346 346 346 344 343 342 342 341 342 342 342 342 341 341 340 340 341 342 343 344 343 343
306 305 305 305 305 305 305 305 305 304 304 305 305 304 304 304 304 304 304 304 304 304 305 305 304 304 304 306 308 309 309 310 312 312 313 313 313 314 314 316 316 317 318 318 321 322 324 332 339 343 347 350 350 350 352 352 351 351 350 348 347 347 346 346 346 346 346 345 344 344 343 343 343 344 343 342 342 341 341 342 343 344 344 344 344 343
305 305 305 304 305 305 305 306 305 304 304 305 304 303 304 304 304 304 304 304 304 304 305 305 304 304 304 306 308 308 308 309 310 312 313 313 313 314 314 315 316 317 318 317 318 321 322 327 333 337 341 346 349 350 351 352 352 351 350 349 348 347 346 345 346 345 345 346 345 345 345 345 345 345 343 342 342 343 342 343 344 344 344 343 343 343
306 305 305 305 305 306 306 305 305 304 304 304 304 303 304 304 304 304 304 305 305 305 306 305 304 304 304 305 306 307 307 308 310 310 311 312 313 314 315 315 316 316 317 317 316 318 320 323 328 332 337 342 347 350 351 352 352 352 349 348 347 347 346 346 346 346 345 346 346 347 346 346 346 345 344 343 343 343 344 344 344 343 343 343 343 343
306 305 305 305 305 306 306 305 305 304 304 304 303 303 303 304 304 304 305 305 306 306 306 306 305 304 304 305 305 306 308 308 309 309 310 311 311 313 315 315 315 315 316 317 317 317 319 321 325 329 333 338 345 350 350 351 352 351 349 347 347 346 345 346 347 346 346 346 347 348 348 347 347 346 344 343 343 344 344 344 343 343 343 343 343 343
307 305 305 305 305 305 305 305 305 304 304 303 303 303 304 304 304 305 305 305 306 306 306 305 306 305 304 306 306 306 308 308 308 308 309 310 311 312 314 314 314 315 316 316 316 317 318 320 323 327 331 335 342 349 350 351 352 351 349 348 347 346 345 346 347 347 347 346 347 348 349 348 348 347 345 344 344 344 344 344 343 343 343 343 343 343
308 307 306 306 305 305 305 305 305 304 304 303 303 304 305 305 305 305 305 306 306 306 306 306 305 305 305 306 307 307 307 308 308 309 309 309 310 312 312 313 314 314 315 316 316 317 318 320 324 327 329 333 340 348 350 350 351 350 348 348 347 346 345 345 346 347 347 347 348 348 348 348 348 348 347 345 344 343 343 343 343 343 343 343 343 343
309 308 307 307 306 305 305 305 305 304 304 304 304 304 305 305 306 306 306 306 306 306 306 305 305 305 306 306 307 307 307 308 308 308 309 309 309 310 311 311 312 313 314 315 316 317 318 320 324 326 327 329 337 346 350 349 349 349 348 348 348 347 346 345 345 347 347 348 348 348 348 347 348 349 348 347 345 344 343 343 343 343 343 342 342 342
310 310 308 307 307 306 305 305 306 305 304 304 304 304 305 305 305 306 305 306 306 306 305 305 305 305 305 306 307 307 307 308 308 308 309 308 308 309 310 310 311 312 314 315 316 317 318 320 324 326 326 327 334 344 349 348 349 349 348 348 348 347 347 345 345 346 347 348 348 348 348 347 347 348 348 348 347 346 345 345 344 343 343 343 342 342
309 309 308 307 306 305 305 305 305 305 305 305 305 304 305 305 305 305 306 307 307 307 306 306 306 306 306 307 308 308 308 307 308 308 308 309 309 309 309 310 311 311 313 315 316 317 318 320 324 327 328 328 332 342 347 348 349 349 349 348 348 348 347 346 345 345 346 348 348 349 348 346 347 347 348 348 348 347 346 345 344 344 344 343 343 343
308 309 307 307 306 305 305 306 305 305 306 306 305 305 305 305 305 305 305 307 306 306 306 306 306 306 306 307 307 307 307 307 308 309 309 309 309 310 310 311 311 311 312 314 316 317 319 321 324 327 329 329 331 339 345 347 349 350 350 349 348 348 347 346 344 344 345 347 348 348 347 346 347 347 347 348 347 347 346 345 344 344 345 344 343 342
308 309 307 306 306 306 305 305 305 305 305 305 305 305 306 305 305 305 305 306 306 305 306 305 305 305 305 306 307 306 307 307 307 307 309 310 310 311 311 312 312 312 312 313 314 316 318 320 323 326 328 329 331 336 343 347 349 350 350 350 348 348 348 346 345 344 345 346 347 348 347 346 346 346 347 347 346 346 347 346 344 344 345 344 343 342
307 308 308 306 306 306 305 305 305 305 305 305 305 305 305 305 305 304 305 306 306 306 306 305 304 305 304 305 307 307 307 308 307 306 307 308 310 311 311 312 313 313 314 314 313 315 318 319 321 324 327 328 330 333 339 345 348 350 350 349 349 348 348 347 346 345 345 346 347 347 347 346 346 346 346 346 346 346 347 346 344 344 345 343 342 341
307 308 308 306 306 306 305 305 305 305 305 304 305 305 305 305 305 304 304 305 305 305 305 305 305 305 305 305 306 307 308 309 309 308 308 308 308 309 310 311 312 313 314 314 314 315 317 320 321 322 324 327 328 331 335 342 347 349 349 350 349 348 348 347 347 347 346 346 347 347 346 345 345 346 346 345 345 345 346 345 344 344 344 342 341 340
307 308 307 306 307 307 306 305 305 305 305 304 304 304 304 304 305 305 304 304 304 305 305 305 305 305 306 306 306 306 307 308 309 309 309 309 309 309 310 311 312 312 313 315 316 316 316 320 322 321 322 324 327 329 333 339 345 348 349 350 350 349 349 348 348 348 347 346 347 347 346 345 346 345 345 345 345 345 345 344 343 342 342 341 340 339
307 308 308 307 307 307 307 306 305 305 305 304 304 304 304 304 304 305 305 304 303 304 305 305 305 305 306 306 306 306 306 307 307 307 308 308 309 310 312 313 314 315 315 316 317 316 316 319 321 321 321 323 325 329 333 336 342 346 349 350 350 349 349 349 349 349 347 345 345 346 346 346 345 345 345 345 345 344 345 344 342 342 341 340 339 338
307 308 308 308 308 307 307 306 306 306 305 305 304 304 304 305 305 304 304 305 304 303 304 305 305 306 306 307 306 307 307 306 307 307 307 308 310 312 313 315 317 317 318 319 319 318 318 319 321 321 321 323 325 328 333 336 340 344 348 349 350 350 349 350 350 349 347 346 345 345 346 346 345 345 344 344 344 344 344 343 341 341 341 339 338 338
308 308 308 309 308 307 307 307 307 306 306 306 305 305 304 305 305 304 305 306 305 304 303 305 306 306 306 307 307 307 308 307 307 308 308 309 311 312 312 314 317 318 319 320 321 320 319 319 321 322 321 323 325 329 333 338 342 345 346 347 348 349 349 349 350 348 347 346 344 345 345 345 345 344 344 344 343 343 343 342 341 341 340 338 337 337
309 309 309 309 310 309 309 310 309 308 308 307 306 306 305 304 305 305 305 306 306 304 303 305 306 306 306 308 307 307 307 306 306 306 307 307 308 309 310 313 316 318 319 320 322 323 321 319 320 321 322 323 325 328 333 339 343 345 345 346 346 348 348 349 349 347 346 345 344 344 345 345 344 344 343 343 343 343 342 341 340 339 338 337 337 337
309 309 309 310 311 311 311 311 311 309 309 308 308 307 306 305 305 305 305 306 306 305 304 304 305 306 306 307 307 307 307 307 307 306 306 307 308 309 312 315 316 317 319 319 321 324 323 321 319 320 322 323 324 327 331 337 340 341 343 346 346 347 347 347 347 346 345 344 344 344 344 344 344 343 343 343 343 342 341 339 338 337 337 336 336 336
309 310 310 310 311 311 311 311 311 310 310 310 309 309 308 306 305 305 305 305 306 306 306 305 305 305 306 306 306 307 308 307 308 308 307 308 309 310 313 316 317 317 318 318 319 323 325 323 320 320 322 324 325 326 329 334 337 338 341 345 346 346 346 347 347 345 344 344 344 344 343 343 343 343 343 343 342 342 340 339 337 337 336 335 335 336
309 310 311 310 311 311 310 311 310 310 310 310 309 309 309 308 307 307 306 305 306 307 307 307 306 306 306 306 307 307 308 308 308 309 310 311 312 313 314 315 316 316 316 318 320 323 326 325 322 321 322 324 326 326 329 333 336 337 341 345 346 346 346 347 346 344 344 344 344 343 343 343 343 343 343 342 341 341 339 338 337 336 335 335 335 336
310 311 311 311 311 310 310 310 310 310 309 309 309 309 309 308 309 309 308 306 306 307 307 308 307 306 306 307 308 308 308 309 309 310 312 313 314 313 313 314 314 315 317 319 322 326 328 327 324 321 322 324 325 327 331 335 337 340 343 345 345 345 345 345 344 343 343 343 343 343 343 343 343 343 342 341 341 340 339 338 337 336 335 334 336 336
310 312 311 311 311 311 311 310 310 310 310 310 310 309 309 309 308 309 308 308 307 307 307 307 308 307 307 307 308 309 309 310 310 310 312 312 312 311 313 314 315 316 317 319 324 329 330 328 325 322 324 326 326 327 332 336 338 341 344 345 345 344 344 343 342 343 343 343 343 342 342 342 343 342 341 341 340 339 338 337 336 335 334 335 335 335
310 312 312 311 312 312 311 310 310 310 310 310 310 310 310 310 309 309 309 309 309 308 308 308 308 308 307 308 308 309 310 310 309 310 310 311 310 311 313 314 314 316 317 319 324 330 331 329 325 323 324 327 328 329 332 336 339 341 343 345 345 344 343 342 342 342 342 342 342 342 342 342 342 342 341 340 340 339 338 336 335 335 334 334 335 335
310 312 312 312 313 314 312 312 311 310 310 310 310 310 310 310 311 310 310 309 309 310 310 309 309 308 308 308 309 309 309 309 310 310 311 311 311 311 313 314 314 316 319 321 324 330 331 329 325 324 326 329 331 331 333 338 340 341 343 344 344 343 341 341 342 341 341 342 342 341 342 342 342 341 341 340 339 338 336 335 334 334 334 334 334 334
311 312 312 313 314 314 313 313 312 311 312 313 312 312 310 309 310 310 309 309 309 310 310 309 309 309 308 309 309 309 309 310 311 311 310 310 311 312 312 313 314 318 323 326 328 330 331 327 324 326 328 330 332 333 335 339 340 340 342 342 342 341 341 341 341 341 342 342 341 342 342 342 342 341 340 339 338 337 336 335 334 333 333 334 334 334
312 313 313 313 314 314 314 314 313 313 315 315 314 314 312 309 309 309 309 309 309 309 309 309 309 309 309 309 309 309 309 310 310 310 309 310 311 311 311 312 316 322 327 330 331 330 328 325 324 327 330 331 332 334 337 339 339 340 341 341 341 341 341 341 341 341 341 341 341 342 341 341 341 340 340 338 337 336 335 334 333 333 334 334 333 333
312 313 312 313 313 314 315 315 315 315 315 315 315 315 313 310 308 308 308 308 308 308 308 308 308 308 308 308 308 308 310 310 310 310 311 311 310 310 312 316 322 327 330 332 332 330 326 324 325 329 332 334 335 337 339 338 339 341 342 341 341 340 340 341 341 341 341 341 341 341 341 341 340 340 339 337 336 335 335 334 333 333 333 333 332 333
312 312 313 313 314 315 316 316 316 316 315 316 316 314 312 310 308 309 310 309 308 308 308 307 307 307 307 307 308 310 311 310 310 310 310 310 311 313 319 323 326 329 332 333 333 330 326 325 328 331 335 336 337 339 339 339 341 342 342 341 341 340 340 340 340 341 341 341 341 341 341 340 339 339 338 336 336 335 334 334 333 332 332 332 332 333
312 312 313 314 315 316 317 316 316 316 317 318 318 316 314 312 310 310 310 311 310 309 309 310 310 309 309 310 312 312 311 311 312 313 314 317 320 323 326 327 328 331 334 335 334 330 327 328 331 335 337 338 338 340 340 341 342 341 340 341 341 341 341 340 340 341 341 340 340 340 340 339 339 338 337 336 335 335 334 334 333 332 331 331 332 332
313 313 315 316 316 316 317 317 316 317 318 319 318 316 315 315 314 313 311 312 313 313 312 313 312 311 312 313 315 315 316 318 320 323 326 329 329 329 329 329 331 334 335 335 334 332 331 333 336 338 340 341 341 341 341 341 341 341 341 341 341 341 341 340 341 341 340 340 340 340 339 339 338 337 336 335 335 334 334 333 332 331 331 332 332 331
315 314 314 315 316 316 317 318 318 318 319 318 316 315 316 317 317 316 315 316 318 318 317 316 316 316 318 318 319 320 323 324 325 329 333 333 331 331 330 331 335 337 336 336 337 335 337 339 339 340 341 341 341 340 341 341 341 341 341 341 341 341 341 341 341 341 340 340 339 339 339 338 337 336 335 335 334 334 333 333 332 331 331 332 332 331
317 316 315 316 317 318 318 318 318 317 316 316 316 317 319 319 317 318 321 322 322 322 322 321 322 323 323 322 322 324 324 324 325 329 331 331 332 332 331 333 337 337 336 338 338 337 339 340 339 340 340 339 340 340 341 342 341 341 342 342 341 341 341 341 340 340 340 340 339 339 339 338 336 335 334 335 334 333 333 332 331 331 332 332 332 331
316 316 316 317 318 319 318 319 319 317 315 316 317 319 319 320 320 321 323 323 323 323 324 324 325 325 324 323 324 325 325 325 326 327 327 329 334 335 333 333 338 338 337 338 338 338 339 339 339 341 340 340 342 341 341 342 342 341 342 341 341 342 341 341 340 340 340 339 339 338 338 337 336 335 334 335 334 333 332 332 331 331 332 332 332 331
315 316 316 316 317 318 318 319 320 318 315 316 318 319 319 321 322 323 323 323 324 324 325 325 326 325 325 325 326 326 326 326 327 328 329 332 335 336 335 335 337 339 339 340 339 339 340 340 340 341 341 342 342 342 342 342 342 341 342 342 342 342 341 340 340 339 339 339 338 338 337 336 335 334 334 335 334 333 333 332 331 331 332 332 331 330
314 315 315 316 317 318 319 320 321 320 317 316 318 319 320 321 322 322 322 323 324 324 325 326 326 326 326 326 326 326 327 327 328 330 331 333 335 335 336 337 338 339 339 340 340 339 340 341 341 341 342 342 342 342 342 342 342 341 341 342 342 341 340 339 339 339 338 338 338 337 337 336 334 334 334 334 333 333 332 331 330 330 331 331 330 329
313 313 314 315 316 318 320 319 318 318 317 316 316 317 318 318 318 320 322 323 323 323 325 326 327 326 326 327 327 327 327 328 329 331 331 333 335 335 335 336 338 340 339 339 340 340 341 342 342 342 342 342 342 342 342 342 341 341 341 341 341 340 339 339 338 338 337 337 337 337 336 335 334 334 334 333 333 332 331 330 329 329 329 329 327 326
312 311 313 315 316 317 318 316 316 317 317 316 316 316 316 316 316 318 321 321 322 323 324 325 327 326 326 326 327 327 328 328 329 330 332 332 333 335 335 335 335 338 340 341 340 340 341 342 342 342 342 342 341 342 341 341 341 341 341 340 339 339 339 339 339 339 337 336 336 336 335 334 334 334 333 332 332 331 331 330 329 328 327 327 326 325
312 312 313 315 315 316 316 314 314 317 316 315 315 315 315 315 316 317 319 320 320 321 322 324 326 326 326 327 327 328 328 327 327 329 330 330 331 333 334 335 334 335 337 339 340 341 340 341 341 341 342 342 341 341 341 341 341 340 339 338 338 338 338 338 339 338 336 335 335 335 335 334 334 333 332 331 331 330 329 329 328 326 326 326 327 327
312 313 313 313 314 315 315 313 313 315 315 314 314 314 313 314 315 316 317 318 318 318 319 322 324 326 326 326 327 328 327 326 326 327 328 328 329 329 331 333 334 333 333 335 338 340 340 340 341 341 341 342 342 341 341 341 341 339 338 337 337 338 337 337 337 336 335 334 333 333 334 334 334 333 332 331 330 329 328 327 326 325 325 326 327 329
313 313 312 312 313 314 314 312 311 313 313 312 312 314 313 313 314 315 315 316 316 317 317 319 322 325 325 325 326 327 327 326 326 326 326 326 326 327 329 331 331 332 332 332 334 338 340 340 340 340 340 341 341 340 340 340 340 338 337 337 337 337 337 336 335 335 334 333 332 332 332 332 332 332 331 330 330 328 327 326 325 324 325 325 327 329
312 312 312 313 313 313 312 311 310 311 311 310 311 312 312 312 313 313 313 313 314 315 316 318 321 323 323 324 325 326 326 325 325 325 325 325 324 325 326 328 330 332 332 332 333 335 338 339 339 339 338 339 340 341 340 339 337 336 336 336 336 336 335 334 333 334 333 332 332 332 331 330 330 330 330 329 328 326 325 325 324 325 325 326 327 328
312 311 311 312 311 311 310 310 310 310 310 310 311 312 312 312 313 313 312 313 314 314 316 319 320 321 322 323 324 325 325 324 324 324 323 323 323 324 324 325 327 330 332 332 332 333 334 335 336 336 336 336 337 338 338 337 336 337 336 335 335 335 333 331 332 333 333 332 332 331 329 329 329 330 329 327 324 322 322 322 323 325 325 325 326 326
311 311 311 311 310 309 309 309 310 310 310 311 311 312 312 312 313 313 313 313 313 314 316 318 320 321 321 321 323 324 325 324 324 323 323 322 322 323 324 324 325 327 330 331 332 332 331 331 332 332 333 333 333 334 334 334 335 336 337 336 334 332 331 330 331 332 331 331 331 329 329 328 328 327 326 323 321 320 320 320 320 322 323 324 325 325
Wind_Speed
3 4 5 4 1 2 1 3 5 3 3 4 4 6 8 8 8 11 8 6 4 9 12 17 16 17 21 21 18 13 12 13 12 15 15 15 16 14 15 15 15 15 13 13 15 15 16 15 16 16 17 18 18 18 20 21 21 21 22 22 21 22 22 21 20 20 19 19 18 18 17 17 16 16 15 14 15 14 13 13 14 14 14 15 16 16
4 5 2 1 3 2 1 1 2 2 4 6 6 7 8 8 7 9 9 5 4 7 9 13 15 16 17 17 17 13 13 13 12 13 14 16 15 13 16 17 17 15 12 14 13 13 14 13 14 15 15 19 20 20 22 22 22 21 22 23 23 23 23 22 21 20 18 18 17 17 16 16 15 15 15 15 15 14 14 14 15 15 15 16 16 16
5 4 3 4 2 2 2 2 3 5 5 6 7 7 7 8 7 6 8 7 4 5 9 10 10 12 15 16 15 13 15 14 13 13 13 14 15 14 15 15 16 16 14 16 13 13 15 15 16 16 15 18 20 21 22 22 22 22 23 25 24 24 24 22 21 20 18 17 16 15 14 15 14 14 14 14 13 14 14 14 15 16 16 17 17 16
3 2 6 5 3 3 4 4 5 5 5 7 6 6 7 8 8 6 8 10 7 6 9 9 7 10 14 16 16 16 17 15 14 15 13 11 13 13 12 12 14 16 15 16 15 14 16 18 18 17 16 18 19 20 21 22 22 22 24 26 25 25 24 23 22 20 18 17 16 15 13 13 13 12 13 13 13 14 15 15 16 16 16 17 18 17
4 4 6 3 4 4 5 5 6 6 5 7 7 7 7 6 8 7 3 4 5 8 10 9 8 10 13 16 16 15 16 17 16 16 15 13 13 12 11 11 11 13 13 13 14 12 13 17 19 19 19 19 20 20 22 24 24 23 24 26 25 25 23 22 23 21 19 17 17 16 14 14 13 12 13 14 15 15 15 15 16 16 17 18 18 17
3 4 5 5 5 5 5 5 6 6 5 6 9 10 8 5 7 8 5 3 5 8 11 11 10 9 13 18 17 14 15 18 17 18 18 17 17 15 13 12 11 11 11 11 12 11 10 12 16 18 19 20 20 21 23 25 25 23 23 24 25 25 23 21 23 23 20 19 19 19 18 17 16 15 15 16 15 15 15 16 16 17 18 18 17 17
2 5 6 7 7 7 7 5 6 6 6 5 4 7 9 9 9 10 9 7 7 7 7 10 11 9 9 15 18 17 17 19 19 20 20 18 18 18 15 14 14 13 12 11 12 12 10 10 12 14 15 18 19 20 22 23 23 23 23 24 26 25 23 21 22 23 22 21 21 21 19 18 17 16 15 15 15 15 15 15 16 17 18 18 18 17
5 6 7 8 8 8 7 6 5 7 7 2 5 3 8 10 11 11 10 8 8 7 3 7 11 10 9 11 13 15 19 20 20 20 20 19 20 20 19 17 16 15 13 12 12 13 12 11 11 12 13 14 15 16 19 20 21 23 23 23 24 24 22 21 22 24 23 22 22 22 19 17 17 15 14 14 15 15 15 15 16 18 18 18 18 17
7 7 8 8 7 7 5 2 4 8 8 0 4 2 5 8 9 10 9 8 8 9 7 9 12 10 10 10 9 12 16 18 20 21 20 19 20 21 21 20 18 16 14 14 14 13 12 12 13 12 12 13 13 14 16 18 19 21 22 22 24 24 22 21 23 25 25 22 22 22 20 18 17 15 14 14 15 15 16 17 18 19 18 18 17 16
4 4 5 6 7 6 5 4 4 8 7 1 3 4 3 5 7 7 8 7 8 9 10 13 14 10 10 10 10 11 13 15 17 18 19 19 19 19 19 20 19 16 13 14 15 14 13 14 14 13 13 14 14 15 16 17 17 19 21 23 25 26 23 21 24 25 25 24 22 22 21 20 18 16 15 15 16 17 17 19 19 18 17 16 16 15
4 2 3 6 7 6 6 7 6 8 7 2 4 6 5 5 6 6 6 6 7 9 12 16 17 14 11 9 10 11 12 14 15 14 15 16 18 19 18 18 19 18 14 13 14 14 14 15 15 14 14 15 14 15 16 17 17 19 22 23 26 26 24 23 24 26 27 26 24 22 22 21 20 18 18 17 17 18 18 18 18 17 16 15 16 15
9 7 6 7 8 8 7 7 7 9 8 5 5 7 6 6 5 5 6 6 7 10 12 16 19 18 13 9 10 12 13 14 14 13 13 14 14 14 15 16 17 18 16 14 14 14 14 14 14 14 14 15 14 15 17 18 19 21 22 24 25 26 26 25 25 28 29 28 25 22 21 21 21 20 20 20 19 18 18 18 17 16 16 16 16 15
8 8 8 8 9 9 9 8 8 8 9 8 7 7 6 6 6 6 7 7 9 11 10 11 15 16 13 11 13 14 13 12 11 10 11 11 11 10 12 14 14 15 17 16 14 13 13 12 11 12 14 14 13 15 18 19 20 21 22 24 25 26 28 27 26 28 30 29 26 22 21 21 21 21 22 21 20 19 18 18 18 17 16 16 17 17
4 5 8 10 9 10 12 9 7 8 9 9 8 8 8 7 7 8 8 8 10 11 9 9 11 11 10 11 14 17 15 12 10 9 9 10 11 10 10 11 12 13 15 15 15 14 13 12 11 12 14 15 14 17 19 20 20 20 22 24 25 26 28 28 27 29 30 30 26 22 21 22 23 23 22 21 19 19 18 18 19 18 17 17 18 17
5 4 5 8 5 8 13 12 10 8 8 10 10 9 9 8 9 9 8 8 9 10 11 12 9 8 8 5 6 11 14 14 13 13 14 14 13 12 11 11 11 12 12 13 14 15 15 14 13 13 15 16 16 18 19 20 21 21 22 24 25 26 28 28 28 29 31 29 25 22 22 22 24 25 23 20 19 20 19 18 19 19 18 18 17 16
7 7 5 6 3 5 11 13 12 10 8 9 9 10 10 10 10 9 9 8 6 7 9 10 7 7 8 6 4 6 8 11 13 13 14 15 14 14 13 13 12 11 11 11 12 14 15 15 14 14 15 16 17 19 20 20 21 22 22 24 26 27 27 28 28 28 29 28 25 23 23 23 25 25 23 21 19 20 19 18 19 19 18 17 16 15
5 5 3 6 6 8 10 10 12 12 7 5 9 11 10 9 9 9 11 9 5 6 8 8 9 9 9 10 11 13 12 11 11 11 12 13 14 14 12 12 12 12 12 12 12 12 13 13 13 14 15 16 18 19 19 21 22 23 24 25 27 27 26 27 28 28 29 28 26 24 24 25 26 25 24 22 21 20 19 18 19 18 17 17 16 14
4 5 4 8 9 9 9 8 10 13 10 6 7 9 8 8 9 8 8 8 8 10 9 10 14 13 10 9 9 14 18 18 16 14 13 12 12 12 11 11 12 14 14 14 14 14 13 12 13 14 15 17 19 19 20 21 22 24 25 26 27 27 27 27 28 29 29 29 28 26 26 27 27 25 24 23 22 20 19 19 19 17 16 17 15 13
3 6 4 8 9 7 8 7 9 12 14 12 8 5 6 8 9 8 8 7 9 10 9 13 17 14 12 10 7 8 12 14 18 18 17 16 14 12 11 11 12 13 13 14 15 14 13 13 13 15 15 17 19 20 20 21 22 23 24 25 26 27 28 28 27 28 28 28 28 27 27 28 27 25 24 23 23 21 19 19 19 17 17 17 15 12
3 5 2 5 5 4 6 8 8 9 12 14 11 8 8 7 7 8 7 7 10 11 10 13 14 12 11 12 13 13 10 8 10 12 14 15 15 14 13 12 12 12 11 11 13 13 13 13 15 17 17 17 20 21 21 21 22 23 23 23 24 25 26 26 26 26 26 26 26 26 27 27 27 25 24 24 24 23 21 20 20 19 18 18 15 13
4 5 3 3 5 5 6 7 9 9 8 10 11 11 10 8 6 7 8 9 10 10 10 12 12 10 7 9 14 16 14 11 10 9 9 10 12 14 13 12 12 12 12 12 11 13 14 14 16 19 19 19 19 21 22 23 22 22 22 22 23 24 24 26 26 26 25 25 26 26 26 26 27 26 24 24 25 24 22 21 21 20 20 18 15 14
4 4 6 5 4 6 7 7 10 12 10 9 10 11 11 10 8 9 10 11 10 10 10 11 12 10 7 7 9 11 12 12 14 14 13 13 13 12 10 9 9 9 10 11 11 13 14 14 16 18 20 20 20 21 23 23 22 22 22 21 22 23 24 25 26 26 24 24 26 27 26 25 26 26 24 24 25 25 22 21 22 20 19 17 16 16
5 4 7 9 8 9 9 8 9 12 14 13 12 12 11 11 10 11 10 9 10 12 12 12 13 11 8 8 8 8 9 10 12 14 15 14 12 10 9 8 8 7 8 9 11 12 12 13 16 18 20 21 21 21 22 23 23 23 23 23 22 23 24 24 24 25 23 23 24 26 25 23 25 26 26 26 27 26 22 21 22 19 17 17 16 17
5 5 8 8 8 10 11 11 10 11 13 13 13 13 12 13 13 13 11 9 9 12 12 11 12 11 8 9 10 9 10 10 11 12 12 11 9 10 12 11 9 8 8 10 11 11 12 13 15 16 18 20 21 21 21 22 22 23 24 24 24 24 25 23 22 23 23 22 23 25 25 24 26 27 27 28 29 26 23 23 21 19 18 17 16 17
4 5 6 7 8 8 8 8 9 10 11 10 12 14 16 18 18 15 13 11 10 15 16 12 11 11 8 10 12 13 14 15 15 14 14 13 12 12 13 11 11 10 9 11 12 12 13 14 14 14 14 17 20 20 21 22 22 23 24 25 25 25 25 23 22 22 23 22 22 25 26 26 27 27 29 30 28 26 26 24 21 19 18 18 17 17
5 6 5 7 9 8 8 7 4 6 7 7 11 17 19 21 22 16 11 10 12 17 18 14 11 12 12 12 13 13 14 15 16 16 15 14 14 14 12 11 11 9 10 12 13 13 14 14 15 14 14 17 20 21 21 22 23 23 24 25 25 24 24 24 23 22 22 22 23 25 27 27 27 28 30 29 28 28 26 22 22 23 19 17 18 18
3 6 9 11 11 10 12 10 1 2 6 8 12 17 19 21 23 18 11 12 13 12 13 15 17 17 18 17 15 14 14 14 14 14 14 14 14 13 11 11 11 11 12 14 13 13 14 15 16 16 15 17 20 21 21 22 24 24 23 24 24 23 24 24 24 23 22 23 24 26 27 28 29 29 30 30 30 30 24 20 24 26 19 17 19 18
3 7 10 14 16 16 16 14 8 5 9 13 14 16 18 19 21 19 17 18 14 9 12 18 20 20 20 18 17 16 15 15 14 13 13 12 11 11 11 12 14 15 15 15 15 15 15 16 16 16 16 17 20 21 22 22 24 24 23 24 24 24 24 24 24 23 23 23 26 27 27 29 29 29 31 31 31 27 22 20 23 23 19 18 19 18
4 6 7 11 16 18 16 16 18 15 14 16 17 18 19 20 20 21 22 23 17 14 17 17 15 18 19 17 16 16 15 15 14 12 11 11 11 12 14 15 17 18 17 17 16 16 16 16 16 16 16 17 20 21 22 22 23 23 23 23 24 24 24 24 23 23 24 26 28 27 27 29 28 29 32 32 29 25 22 21 22 20 18 19 19 19
4 5 5 8 11 15 15 16 20 19 17 17 17 18 19 20 22 23 24 25 24 23 24 22 20 21 19 16 16 15 13 13 13 12 12 13 14 15 16 17 18 18 17 17 17 16 16 17 17 17 17 18 20 22 22 21 21 23 23 22 24 24 24 24 24 25 26 28 28 27 28 29 29 31 34 31 27 25 23 23 23 21 20 20 20 19
6 4 2 3 8 13 12 12 15 14 13 14 12 13 17 18 19 22 22 21 22 23 25 25 23 21 19 18 17 16 14 13 14 15 15 14 15 16 17 18 19 19 19 18 18 17 16 18 18 19 19 19 20 23 23 22 22 23 23 23 24 25 25 25 25 27 29 29 28 28 28 30 31 33 34 29 26 25 24 23 23 21 22 22 21 20
7 5 3 4 7 10 8 8 10 10 10 11 11 11 14 16 16 17 18 18 19 20 22 21 19 17 17 16 13 12 14 14 15 15 14 14 15 17 19 20 21 21 20 19 19 17 17 19 20 20 20 19 22 25 25 24 24 23 23 24 24 25 25 25 27 29 29 29 30 30 31 32 33 34 32 28 26 26 24 23 22 21 23 23 22 20
5 4 5 5 7 9 9 8 8 9 9 6 6 7 10 14 15 14 16 18 20 18 15 14 14 14 15 14 12 13 14 14 13 13 13 15 18 19 21 22 22 22 20 20 19 17 17 18 19 19 20 20 23 26 27 26 25 25 25 26 25 25 26 27 29 30 29 29 30 32 32 33 33 33 30 28 27 25 24 23 21 22 24 23 22 21
6 6 5 4 5 9 11 9 8 8 6 4 4 7 8 11 14 14 14 15 18 17 14 13 14 15 14 14 14 15 14 13 14 15 16 16 17 19 22 23 22 20 20 19 18 16 16 17 17 19 22 24 26 28 28 27 26 25 25 25 25 26 28 29 30 30 29 30 31 31 33 33 31 30 29 29 28 25 24 24 22 23 25 23 23 23
7 7 6 4 4 7 9 8 7 5 3 5 8 6 5 9 11 12 12 12 13 15 15 16 17 17 17 17 17 16 14 13 15 18 20 20 19 19 21 22 20 19 19 18 16 15 16 17 17 18 21 25 27 27 27 26 25 24 24 25 26 28 29 30 30 29 29 31 32 32 32 31 30 30 29 29 27 25 25 24 23 25 25 22 23 23
7 6 4 4 4 6 6 5 5 6 4 2 5 6 0 4 6 8 10 11 12 13 15 17 19 19 19 19 16 13 13 15 16 19 23 26 24 20 20 19 18 18 17 15 14 14 15 17 18 18 20 24 25 25 26 26 26 25 26 26 27 29 29 29 30 29 29 33 34 33 31 30 30 30 30 28 27 25 25 24 24 24 22 20 22 24
7 5 3 3 4 4 5 6 6 7 5 3 5 6 3 2 4 6 7 9 11 12 12 13 16 17 18 17 15 13 15 17 17 18 21 21 19 17 17 17 17 17 15 12 11 13 15 17 19 20 21 23 24 26 26 27 27 26 26 27 28 29 30 29 29 29 31 34 35 32 30 29 30 30 29 28 27 27 26 25 24 22 20 21 25 26
7 6 4 4 3 4 6 7 6 5 4 3 5 9 7 5 5 6 7 9 9 10 11 12 15 16 16 16 16 15 14 13 13 12 10 7 7 9 10 12 15 14 12 9 10 12 15 18 20 21 23 24 25 25 25 26 27 26 26 28 29 30 30 29 29 31 32 33 33 31 29 29 29 30 29 28 28 28 26 25 23 20 21 25 27 26
6 6 4 4 4 4 5 6 5 4 2 2 7 12 11 7 2 4 4 7 5 9 11 13 15 14 11 11 12 10 8 7 9 8 5 6 9 9 8 10 11 10 8 8 11 14 16 19 21 22 24 24 24 25 25 26 28 27 27 28 29 31 31 30 31 32 31 32 31 29 28 28 29 29 28 28 28 27 26 26 22 20 23 26 25 24
1 2 4 4 5 4 5 5 3 2 2 6 11 15 11 2 5 3 3 3 2 4 6 7 9 7 5 8 9 6 5 7 8 7 7 10 11 9 7 9 7 6 8 9 12 16 18 20 21 22 22 24 24 26 27 28 27 27 27 28 30 31 30 30 32 32 31 30 29 28 29 30 29 28 28 28 26 25 26 26 22 21 24 25 23 24
5 4 4 5 5 5 4 5 4 1 1 7 14 17 12 2 4 2 4 4 7 11 9 8 10 8 6 8 7 5 7 9 10 11 13 12 10 6 4 6 4 4 9 11 13 17 19 20 21 21 22 24 25 26 27 27 26 25 26 27 29 30 29 29 31 31 31 29 27 29 31 30 28 27 27 28 26 24 26 26 22 22 25 24 23 25
7 6 4 5 7 6 4 5 5 0 1 7 16 15 9 4 3 5 8 9 11 12 12 11 11 9 6 5 6 6 9 10 9 10 9 6 6 6 5 2 0 4 9 12 14 17 18 19 20 22 22 24 26 26 26 26 24 24 24 24 24 26 28 31 32 31 30 28 27 28 29 27 27 28 27 27 25 24 25 25 22 22 23 22 24 26
7 7 6 7 6 6 5 6 5 2 4 14 17 9 4 6 7 8 11 13 12 12 12 12 11 10 10 7 5 7 7 7 5 5 6 7 9 9 6 3 4 7 10 12 13 16 17 17 18 20 21 23 24 25 25 25 24 23 23 21 21 25 29 31 31 29 27 27 28 28 26 26 29 30 29 27 25 24 25 23 20 21 21 21 24 24
6 6 5 4 5 5 6 6 5 5 8 13 12 7 7 10 11 10 11 13 13 12 11 10 10 11 12 11 11 11 10 10 10 9 11 11 10 10 9 7 5 6 9 11 12 15 16 16 17 19 20 21 21 22 23 24 23 23 22 20 23 29 29 27 28 27 24 24 27 27 25 25 27 29 29 26 23 23 25 22 19 20 21 21 22 22
6 8 5 4 5 4 3 6 7 7 8 11 9 9 13 15 15 14 13 11 12 12 10 9 10 11 11 11 12 12 11 11 12 12 12 12 11 11 11 10 9 7 7 10 13 14 15 16 17 18 18 19 20 21 21 22 22 22 19 20 25 30 28 26 27 26 22 21 24 25 25 24 25 25 24 23 23 24 25 23 21 21 21 21 21 20
7 10 7 5 7 4 3 9 13 10 11 15 13 11 13 15 16 16 13 11 11 11 10 10 10 10 11 11 10 10 11 12 14 14 13 12 12 12 11 11 11 10 9 8 9 13 15 16 16 16 15 15 18 21 21 22 24 22 18 19 23 26 26 27 28 26 23 20 21 23 25 26 25 23 21 21 22 22 22 22 21 21 22 22 21 20
9 12 8 7 10 7 4 11 17 13 12 16 15 14 16 17 16 15 12 11 12 12 11 11 11 10 11 12 11 10 11 13 14 13 12 11 12 12 13 12 12 11 11 9 7 8 14 15 14 14 14 13 16 19 20 23 25 21 19 21 23 24 26 27 26 24 22 20 21 23 25 26 26 25 24 23 21 19 19 19 19 20 22 22 22 22
10 11 9 9 11 7 2 10 16 12 9 15 16 15 15 16 17 16 14 13 14 15 14 13 11 10 10 11 12 12 12 13 14 13 12 11 11 12 12 12 12 12 11 11 10 7 11 12 12 12 13 14 16 18 19 21 21 19 22 26 26 25 26 26 24 22 20 20 22 24 24 25 27 27 25 21 18 17 18 18 19 24 27 26 23 22
8 9 9 8 8 4 4 12 18 12 9 17 21 18 16 16 17 17 18 18 18 18 17 15 13 11 10 11 12 12 12 12 13 14 12 11 12 12 12 11 12 12 12 11 10 9 8 9 12 13 12 12 14 17 19 20 19 20 25 28 29 28 28 25 24 23 20 21 23 23 22 23 24 23 20 18 17 18 18 19 22 26 28 25 21 20
7 10 10 7 7 8 9 14 17 11 8 14 20 20 19 18 18 19 21 21 20 19 18 15 13 12 12 12 12 12 12 13 13 13 12 11 11 12 13 12 11 11 12 11 10 10 9 9 10 11 10 10 12 16 18 19 19 21 25 27 30 33 34 31 27 23 20 20 21 20 20 20 19 18 17 17 19 21 20 20 22 23 22 22 21 20
10 11 11 9 8 9 10 12 11 9 8 11 15 17 16 16 17 19 20 19 18 18 16 14 13 12 12 12 12 12 14 14 14 14 13 11 12 12 13 13 11 10 11 12 10 9 9 9 9 10 10 10 12 16 19 20 19 21 24 25 27 28 30 29 26 23 20 19 19 22 23 21 18 18 16 17 22 25 24 21 19 18 19 21 22 20
Wind_Direction
241 230 213 220 208 173 189 251 274 319 298 252 237 230 229 226 214 211 196 134 196 236 226 228 234 228 226 223 217 212 213 219 222 223 225 224 221 221 221 220 220 220 216 205 197 194 190 184 186 188 178 173 173 173 175 177 182 189 192 192 190 186 185 183 182 186 188 191 194 198 201 201 201 203 204 206 208 207 206 204 198 195 194 191 190 190
230 244 208 102 40 55 81 237 245 247 229 228 232 228 224 227 221 210 201 158 176 241 235 228 233 234 232 229 228 227 226 223 217 217 223 226 223 221 221 220 219 219 217 215 195 170 174 174 177 187 184 177 174 173 177 179 183 189 193 195 193 188 186 186 184 184 186 190 195 198 201 200 201 202 204 206 206 206 204 202 198 196 194 192 191 190
218 232 101 95 84 101 155 186 205 218 222 224 229 229 223 220 217 208 210 205 194 231 237 225 228 240 236 232 233 233 234 233 227 223 224 227 226 223 220 220 221 219 217 216 198 168 170 173 177 186 189 185 179 174 176 180 182 187 195 198 196 192 188 187 186 185 184 186 192 197 197 197 198 200 203 205 204 202 202 201 199 197 195 193 192 190
237 124 96 106 139 170 183 188 211 216 218 228 227 228 227 214 214 218 208 205 208 230 246 244 246 246 235 232 236 236 237 238 235 232 231 233 232 229 227 224 221 220 217 216 208 187 172 172 179 187 190 190 185 175 174 180 183 188 197 199 198 195 191 188 187 185 180 178 185 193 193 193 195 197 198 202 203 200 199 201 200 199 196 193 192 192
279 100 108 150 174 196 200 187 211 226 220 221 224 235 240 219 221 242 231 196 221 232 240 253 259 249 235 233 235 232 232 234 233 230 229 233 235 236 240 238 231 227 225 223 221 207 181 175 178 183 188 190 187 179 177 183 187 191 196 198 198 197 193 190 187 183 176 174 181 188 189 190 192 195 195 199 201 197 198 201 201 200 197 193 192 193
253 133 151 198 193 208 219 200 211 229 235 222 217 229 247 249 233 248 263 245 243 232 217 221 241 245 230 231 234 230 227 226 226 226 225 229 232 233 237 239 238 236 235 237 237 228 206 189 183 182 182 184 186 182 181 186 190 190 192 195 198 198 196 192 188 183 175 174 182 185 186 187 189 193 196 198 198 197 199 201 199 199 197 194 192 194
198 146 182 213 201 203 221 224 204 214 250 241 187 207 234 246 240 242 243 230 239 243 199 199 233 251 231 227 228 226 228 225 222 223 223 225 228 229 230 231 232 232 231 235 242 241 231 213 201 193 184 184 187 184 182 185 187 188 188 192 197 199 198 194 190 185 178 177 184 188 187 186 186 190 194 196 198 198 200 198 197 198 197 195 194 195
161 168 191 207 211 210 220 227 186 195 244 254 97 166 228 234 235 234 235 231 238 246 191 192 233 256 247 231 220 218 226 228 224 223 221 221 223 225 227 228 228 230 229 227 232 238 238 230 220 211 203 199 194 186 182 182 186 189 190 193 197 200 199 197 193 189 185 181 184 188 188 186 185 186 187 191 195 195 196 197 196 196 196 196 198 198
152 186 192 191 210 216 215 225 167 194 235 265 93 219 236 231 234 231 232 235 237 243 232 213 222 243 248 235 219 218 225 228 226 225 223 221 221 222 225 227 227 228 229 228 228 232 235 237 234 225 218 215 206 195 188 186 189 189 190 194 199 201 202 201 197 194 192 188 184 185 186 185 184 183 180 186 193 193 194 197 195 194 195 196 200 202
175 197 214 214 221 227 218 212 180 200 228 191 147 223 233 226 232 227 232 237 229 235 240 225 216 229 246 233 221 219 224 228 227 226 227 225 223 222 223 225 227 227 228 229 230 233 236 238 238 233 227 222 210 199 195 193 190 187 190 196 200 203 204 204 201 198 196 194 189 185 185 185 181 179 178 183 193 194 196 198 195 193 194 195 200 204
239 169 231 242 236 247 243 227 206 206 223 185 174 210 213 210 219 220 231 240 235 233 236 232 225 231 244 235 222 218 221 229 230 229 228 226 226 225 223 224 226 227 226 227 229 232 237 239 237 233 231 227 213 197 194 194 189 187 190 195 202 206 206 204 202 200 198 198 197 190 186 185 180 177 178 184 191 193 197 200 196 194 195 196 199 201
228 203 216 230 228 236 240 227 210 205 214 206 200 212 205 199 206 216 219 221 236 239 233 230 228 232 239 236 232 229 224 229 235 232 226 221 220 220 222 225 226 227 227 227 230 231 234 237 233 230 233 232 217 199 193 192 189 189 191 194 200 205 206 205 203 202 200 200 201 196 187 187 184 179 180 184 189 191 196 201 198 196 197 199 201 201
224 224 224 219 212 216 226 223 204 201 209 211 212 214 210 208 208 217 219 212 227 240 238 229 225 230 239 240 241 243 238 234 233 229 226 224 221 221 225 224 224 227 229 229 231 231 231 232 225 222 228 229 218 204 197 193 193 193 194 196 199 201 203 206 205 203 204 203 202 197 190 191 192 186 182 185 187 190 196 200 199 198 196 199 203 203
241 244 237 230 212 205 221 226 206 198 203 209 211 209 210 216 219 223 224 220 230 235 224 216 225 236 245 244 241 244 245 241 235 232 240 245 241 239 237 232 228 227 229 230 229 230 230 227 220 217 223 224 216 209 203 197 196 196 195 196 199 201 201 203 206 206 207 206 201 198 194 194 198 195 187 185 185 186 192 198 200 198 197 200 204 204
253 257 232 229 215 195 212 227 231 220 209 213 218 224 229 233 236 237 234 230 243 243 217 203 220 237 239 237 229 237 240 237 240 243 245 246 242 241 241 240 239 231 227 227 227 228 229 228 223 216 220 221 214 210 206 199 197 196 196 197 200 201 199 200 205 207 209 208 201 198 196 196 201 201 192 186 185 183 186 197 201 198 199 203 205 203
245 261 239 222 218 191 206 219 231 236 227 214 216 226 232 238 246 255 259 261 285 281 235 210 222 239 246 256 224 219 226 223 231 238 238 239 235 235 238 236 239 236 228 224 223 225 227 229 226 216 216 218 214 213 207 199 196 195 196 198 199 201 198 198 202 206 209 209 203 197 197 199 202 203 196 187 185 184 186 196 201 199 201 204 205 202
243 264 238 212 207 207 217 217 216 228 236 211 211 224 232 243 256 261 259 259 268 269 249 229 240 243 251 258 240 230 230 223 224 225 225 231 230 230 234 233 234 235 232 228 225 225 224 224 223 217 216 215 215 216 208 199 196 195 196 197 199 200 199 196 199 204 208 208 206 200 199 202 202 201 199 190 183 184 187 196 203 201 200 203 205 198
261 277 235 206 209 205 217 230 220 224 237 233 219 226 232 243 252 253 253 252 244 248 247 239 245 246 246 252 235 227 230 229 230 231 226 223 221 222 224 226 229 231 232 233 230 227 225 223 222 219 217 215 216 219 212 203 198 197 198 198 197 197 196 195 197 202 206 206 206 203 200 202 201 199 200 194 186 185 186 194 202 200 197 201 198 186
244 275 236 206 221 202 190 226 235 224 229 240 249 244 235 238 237 229 231 238 236 240 243 238 241 244 242 243 234 225 227 225 226 230 231 228 223 224 225 225 229 229 230 232 232 230 226 224 221 219 219 218 218 220 218 210 202 200 200 199 199 197 195 195 195 199 203 204 205 203 200 201 200 198 199 195 189 186 187 190 195 196 197 197 189 180
213 265 247 172 203 205 192 218 234 221 217 231 247 246 239 247 247 237 231 231 234 238 244 243 242 240 238 239 241 243 242 235 226 224 229 233 233 236 236 235 236 235 233 231 232 232 229 223 219 218 219 219 218 219 219 215 208 205 203 200 200 198 196 196 196 197 200 202 204 203 200 199 198 196 195 194 191 189 189 188 190 196 196 191 184 181
222 245 257 167 159 196 217 215 227 233 218 218 231 232 230 234 241 248 244 234 237 244 245 246 247 245 239 235 239 242 241 240 242 241 240 240 240 237 235 235 237 238 238 235 232 233 231 225 221 217 217 219 220 217 216 215 211 206 203 201 199 197 196 196 196 196 196 199 202 201 198 195 195 193 191 190 191 190 188 184 188 194 192 185 181 180
224 236 252 246 213 222 236 229 233 245 242 228 228 230 231 229 229 241 242 230 231 242 245 248 253 250 242 235 235 239 240 236 236 242 245 244 243 241 235 236 240 242 246 245 241 238 234 228 223 218 215 216 218 216 214 213 211 206 202 199 197 197 197 196 195 194 193 195 200 200 197 193 192 191 187 186 189 189 185 181 185 188 186 182 178 177
229 249 252 256 257 257 268 268 249 250 254 249 241 236 236 235 232 237 243 238 235 239 244 252 257 256 250 248 245 237 235 235 232 233 236 237 240 247 250 245 242 248 260 265 258 248 241 234 226 219 215 214 214 214 212 209 207 204 200 197 196 197 198 197 194 192 190 193 197 198 195 190 188 187 185 185 188 187 181 178 180 181 182 181 175 175
208 240 250 258 267 265 269 266 250 247 252 251 244 238 235 235 235 237 246 255 254 245 241 246 252 254 247 243 246 244 240 244 246 242 241 244 249 257 259 253 247 258 275 281 274 259 247 239 229 221 216 213 211 211 209 206 203 201 200 199 198 198 198 196 193 190 188 190 193 194 191 188 186 184 182 186 188 183 176 175 177 179 180 178 172 173
207 232 241 260 275 270 257 244 238 236 236 241 243 239 236 236 235 239 244 249 255 248 242 242 249 251 243 230 232 238 243 247 250 252 254 257 259 259 259 252 249 265 283 284 279 267 250 239 231 225 219 213 210 208 206 204 202 201 200 200 199 198 195 193 190 188 187 186 189 192 189 186 185 182 182 186 185 178 174 174 177 179 175 173 171 170
245 246 231 250 267 270 265 256 238 223 219 227 237 237 239 238 233 234 237 239 244 245 242 242 247 253 250 241 234 234 238 245 249 251 253 255 255 254 253 250 253 269 285 286 280 269 254 239 230 226 220 213 210 208 206 205 205 204 201 199 198 195 191 189 188 187 185 184 187 190 187 183 184 181 181 184 181 175 172 173 179 180 173 169 170 168
245 244 227 237 246 251 260 263 246 151 205 221 224 224 230 236 235 233 231 233 239 247 250 243 242 249 249 245 243 242 244 250 253 252 252 250 249 250 251 255 264 276 284 283 276 266 256 240 228 222 217 213 209 207 207 207 206 205 201 197 194 191 187 185 185 184 183 184 188 189 185 183 183 182 181 181 179 174 170 172 179 180 175 169 168 169
223 245 224 231 240 244 255 263 266 248 233 236 236 226 220 225 233 233 231 235 240 253 254 243 238 246 251 249 250 253 255 256 255 254 256 255 257 263 267 269 274 278 279 277 269 260 253 241 226 218 213 211 209 207 206 206 205 202 198 194 189 186 183 180 181 182 182 185 187 186 184 182 181 181 180 179 176 171 168 172 176 176 172 169 169 171
236 256 223 225 241 248 253 263 267 263 249 246 247 240 227 219 220 226 232 236 236 238 247 252 253 254 256 257 255 254 255 257 259 262 267 271 273 275 277 276 277 278 277 275 270 259 248 239 225 214 209 207 207 206 204 204 201 197 194 190 186 183 180 178 179 181 182 186 187 182 181 180 178 177 177 175 171 168 168 172 172 170 168 167 170 173
232 261 221 215 248 260 257 260 264 263 258 256 250 241 234 225 219 221 229 234 235 239 250 261 267 265 262 262 259 259 261 263 267 270 271 272 275 278 279 278 279 279 276 273 270 258 241 231 221 210 205 203 205 205 203 201 197 192 188 185 183 182 179 178 180 182 184 186 183 178 178 178 176 174 175 171 167 166 168 170 170 167 164 166 171 173
214 250 232 212 267 276 267 262 265 264 266 273 266 239 228 227 224 224 229 235 236 241 249 255 261 266 265 262 259 262 267 268 268 269 271 273 277 280 280 280 281 280 276 270 264 253 236 225 215 206 201 200 202 203 201 198 194 189 184 181 180 179 177 177 181 185 186 183 178 176 177 176 173 173 172 168 164 165 166 168 168 165 161 165 171 170
211 250 284 266 279 287 287 283 282 281 277 271 266 247 226 219 221 223 225 228 230 234 242 248 252 257 261 263 263 259 261 263 264 269 275 279 279 279 279 282 283 279 275 268 260 249 234 222 210 202 198 197 198 199 198 195 190 186 182 180 179 177 176 178 183 186 184 178 175 175 174 174 174 173 169 164 163 165 165 166 165 161 162 167 169 168
219 252 280 280 287 293 301 306 295 289 289 270 259 265 243 222 219 222 222 223 225 228 233 238 240 247 259 271 274 268 267 270 274 279 284 282 281 281 281 282 281 278 274 266 254 243 231 218 207 200 195 193 195 196 194 191 188 185 182 180 178 176 176 181 185 184 178 173 173 173 172 173 173 170 165 164 164 163 164 165 162 160 164 166 167 169
247 256 278 289 284 291 303 307 286 281 304 343 333 295 254 223 216 221 225 223 222 224 230 240 250 257 263 267 269 274 279 281 283 283 279 275 276 279 280 277 273 271 268 259 246 234 224 212 203 198 194 192 192 191 190 189 186 183 180 176 174 175 180 183 184 180 174 172 172 171 170 171 170 166 164 164 163 162 164 163 160 162 166 165 166 170
268 268 277 281 265 284 300 294 281 298 340 344 338 323 246 223 219 227 241 244 236 235 240 248 257 261 262 265 269 274 277 275 276 276 272 269 265 265 268 268 264 262 257 247 235 224 215 206 200 196 192 190 187 185 185 185 182 177 174 172 172 178 182 182 179 175 171 168 168 168 168 168 167 164 164 164 162 162 162 160 160 164 165 164 166 170
269 281 272 265 260 280 299 292 291 320 341 351 13 31 75 230 226 233 252 256 249 245 243 245 251 255 260 265 267 270 275 276 275 271 267 264 260 253 252 255 257 256 250 239 226 217 209 200 194 191 187 184 181 179 179 178 174 172 171 171 175 180 181 178 174 171 167 166 167 167 166 165 166 166 165 164 162 161 160 160 162 163 161 161 168 171
241 263 270 264 261 280 303 303 297 309 331 36 36 25 21 241 224 224 246 258 251 247 249 250 253 257 261 266 268 269 272 274 275 271 265 258 250 242 240 245 251 250 245 236 222 210 201 194 188 182 178 176 175 174 174 172 171 171 172 172 175 178 177 174 172 168 165 166 167 165 163 164 165 166 165 163 163 163 161 160 162 161 159 164 170 172
217 241 279 285 271 287 303 308 314 322 345 27 347 336 329 290 243 207 232 264 257 243 247 250 250 252 255 260 265 266 263 264 267 271 275 268 255 251 250 250 249 243 234 223 207 194 186 182 176 170 168 168 169 170 169 169 170 172 173 173 174 174 173 171 169 165 163 166 165 161 163 166 167 166 165 162 164 165 161 159 161 161 163 169 171 171
215 228 261 279 279 292 307 317 329 335 348 316 302 312 312 293 224 156 220 262 236 211 222 236 245 251 253 256 262 268 276 279 269 272 320 337 310 298 287 268 251 229 209 195 184 175 170 167 163 162 163 164 165 167 167 169 171 173 174 173 172 172 172 171 169 166 164 164 163 160 164 169 168 165 163 161 164 165 161 160 161 163 168 173 173 171
296 248 262 278 288 296 307 318 327 323 322 313 310 320 328 288 159 160 251 273 263 239 240 259 276 289 293 280 280 290 291 279 269 275 306 314 304 298 286 274 256 191 172 172 167 163 160 159 158 158 161 162 164 166 167 170 174 175 174 172 171 172 171 169 167 166 163 160 159 162 169 170 168 165 163 161 162 163 161 160 162 168 173 175 173 174
357 336 295 294 315 324 315 316 329 330 269 317 324 331 337 313 181 265 312 312 311 312 319 320 309 306 291 272 278 298 281 263 258 267 278 289 301 317 311 292 279 160 151 151 152 153 154 156 156 157 159 161 162 165 167 171 174 174 171 171 172 171 167 163 162 161 159 155 157 165 171 171 167 164 162 161 162 163 164 163 166 172 173 172 173 177
351 337 328 336 337 332 316 312 325 25 140 333 330 328 327 324 318 318 311 306 311 320 328 326 316 316 308 268 247 265 274 265 257 261 271 297 339 2 7 333 228 131 134 141 148 150 149 151 154 155 157 158 160 163 167 169 170 168 165 168 169 164 159 159 159 158 156 155 159 166 170 170 167 163 161 161 163 165 165 164 167 171 170 171 175 178
349 337 339 353 344 328 338 355 357 357 342 341 339 336 344 347 334 317 311 314 322 330 332 332 333 335 335 325 296 296 314 329 328 325 350 19 31 29 28 62 119 125 132 140 145 145 144 146 149 150 152 155 159 162 163 162 161 160 159 160 160 157 155 155 155 153 153 157 164 168 168 167 167 165 163 164 166 166 164 162 164 168 168 170 174 178
4 352 333 342 344 336 352 4 351 321 330 344 351 349 340 336 328 322 324 324 328 335 338 339 340 336 335 337 336 342 356 358 353 2 14 20 30 40 39 40 64 110 129 130 131 136 139 141 143 145 148 152 156 159 159 157 156 156 156 156 155 154 152 151 150 150 153 161 167 168 167 165 165 166 165 164 166 166 162 160 162 167 169 170 172 175
346 336 309 299 325 345 12 353 328 321 343 356 359 347 341 342 339 337 337 334 334 339 340 337 336 335 340 349 353 357 2 355 353 10 22 19 21 35 44 40 37 53 90 111 122 131 137 139 141 143 144 148 154 157 158 156 154 154 153 152 154 154 153 154 157 156 157 162 166 166 165 163 162 163 164 166 169 167 162 160 164 167 170 171 171 170
328 340 337 321 323 332 35 4 342 341 360 1 355 352 353 352 349 346 345 344 343 341 338 339 341 342 353 8 11 9 9 4 2 10 21 21 18 21 33 42 43 41 50 78 110 127 134 138 142 142 141 146 153 156 157 157 156 154 149 149 154 154 154 157 162 161 160 161 162 162 163 162 163 165 168 172 173 167 161 163 167 168 169 171 173 173
344 355 359 350 344 345 18 3 344 335 354 0 353 352 357 353 347 347 348 346 345 344 341 340 342 349 6 19 20 20 22 19 13 13 18 22 19 15 19 31 40 42 41 41 60 113 133 137 139 143 145 147 148 150 155 160 158 152 146 151 156 157 157 159 160 158 158 159 159 159 161 164 168 171 171 171 169 164 162 166 168 167 167 170 175 177
337 348 351 350 355 351 343 352 341 323 342 6 359 352 355 350 341 343 350 353 356 355 350 348 350 358 12 17 15 20 27 26 23 20 17 17 19 17 17 22 27 34 39 33 33 76 127 137 137 138 140 142 146 151 155 155 151 147 150 155 158 157 158 161 160 157 156 160 162 162 162 165 168 169 167 166 164 162 164 169 171 172 173 175 177 176
319 345 345 330 340 341 325 351 351 335 341 3 359 352 351 345 338 344 354 359 2 358 352 353 359 4 13 17 15 20 26 26 25 25 22 18 17 17 16 17 20 26 35 37 36 49 88 125 136 133 128 132 144 153 151 145 144 150 155 158 159 158 156 158 161 160 159 162 165 166 165 165 166 164 160 158 158 159 164 171 174 174 177 181 181 178
345 8 358 339 360 11 354 354 357 350 343 350 347 345 346 342 340 350 358 360 358 354 350 353 0 8 19 22 20 24 32 30 24 24 25 21 16 15 16 15 16 21 27 36 47 54 62 89 120 127 124 126 134 142 144 145 151 159 161 162 165 165 162 160 161 162 163 166 167 167 165 164 163 159 155 154 154 154 155 163 171 174 176 179 180 182
11 14 9 11 21 9 347 345 352 351 341 332 330 337 344 342 343 352 355 353 350 350 354 0 5 12 21 24 24 32 40 39 32 29 30 26 20 18 18 18 18 17 18 27 44 59 67 78 98 112 119 129 135 142 151 158 164 168 169 169 169 169 168 166 162 160 162 168 170 169 167 164 161 157 154 154 157 156 152 152 160 167 173 176 178 183